This is the latest recevied weather packets stored in our database for station/object W1REE. If no packets are shown the sender has not sent any weather packets the latest 10 day(s).
| Time | Temp. | Humidity | Pressure | Rain* | Wind** | Luminosity | Snow |
|---|---|---|---|---|---|---|---|
| 1777801099 | 5.56° C | 52% | 1020.5 hPa | 0 mm | - | 0 W/m² | - |
| 1777800796 | 5.56° C | 51% | 1020.5 hPa | 0 mm | - | 0 W/m² | - |
| 1777800491 | 5.56° C | 55% | 1020.5 hPa | 0 mm | - | 0 W/m² | - |
| 1777800188 | 6.11° C | 51% | 1020.5 hPa | 0 mm | - | 0 W/m² | - |
| 1777799888 | 6.11° C | 50% | 1020.5 hPa | 0 mm | - | 0 W/m² | - |
| 1777799585 | 6.11° C | 49% | 1020.5 hPa | 0 mm | - | 0 W/m² | - |
| 1777799281 | 6.11° C | 50% | 1020.2 hPa | 0 mm | - | 0 W/m² | - |
| 1777798978 | 5.56° C | 52% | 1020.5 hPa | 0 mm | - | 0 W/m² | - |
| 1777798674 | 6.11° C | 49% | 1020.7 hPa | 0 mm | - | 0 W/m² | - |
| 1777798370 | 6.11° C | 50% | 1020.6 hPa | 0 mm | - | 0 W/m² | - |
| 1777797463 | 5° C | 48% | 1020.6 hPa | 0 mm | - | 0 W/m² | - |
| 1777797159 | 5.56° C | 55% | 1020.5 hPa | 0 mm | - | 0 W/m² | - |
| 1777796856 | 6.11° C | 50% | 1020.6 hPa | 0 mm | - | 0 W/m² | - |
| 1777796553 | 6.11° C | 46% | 1020.6 hPa | 0 mm | - | 0 W/m² | - |
| 1777796254 | 6.67° C | 47% | 1020.7 hPa | 0 mm | - | 0 W/m² | - |
| 1777795951 | 6.11° C | 46% | 1020.8 hPa | 0 mm | - | 0 W/m² | - |
| 1777795646 | 6.67° C | 47% | 1020.7 hPa | 0 mm | - | 0 W/m² | - |
| 1777795344 | 6.67° C | 44% | 1020.7 hPa | 0 mm | - | 0 W/m² | - |
| 1777795040 | 6.67° C | 42% | 1020.7 hPa | 0 mm | - | 0 W/m² | - |
| 1777794737 | 6.11° C | 46% | 1020.7 hPa | 0 mm | - | 0 W/m² | - |
| 1777794433 | 6.67° C | 41% | 1021.1 hPa | 0 mm | - | 0 W/m² | - |
| 1777794128 | 6.67° C | 46% | 1021.2 hPa | 0 mm | - | 0 W/m² | - |
| 1777793824 | 6.67° C | 41% | 1021.1 hPa | 0 mm | - | 0 W/m² | - |
| 1777793523 | 6.67° C | 41% | 1021.2 hPa | 0 mm | - | 0 W/m² | - |
| 1777793220 | 6.11° C | 45% | 1021.2 hPa | 0 mm | - | 0 W/m² | - |
* Rain latest hour (hover to see other rain measurements)
** Current wind speed in m/s (hover to see current wind gust speed)